User: anonymous   Login
Location: Caltech
(34.1382°N, 118.1253°W)
Time: 14:38:27
(UTC-07:00)
Language:

TMSAT-1 - Orbit

View from above orbital plane
View from above orbital plane
View from above satellite
View from above satellite

Ground track
Ground track

The orbit data is extracted from the following two-line orbital elements,

1 25396U 98043C   17086.81857710 +.00000018 +00000-0 +26286-4 0  9995
2 25396 098.5768 032.7071 0002317 178.0326 182.0863 14.24433134972364
Epoch (UTC): 27 March 2017 19:38:45
Eccentricity: 0.0002317
inclination: 98.5768°
perigee height: 809 km
apogee height: 812 km
right ascension of ascending node: 32.7071°
argument of perigee: 178.0326°
revolutions per day: 14.24433134
mean anomaly at epoch: 182.0863°
orbit number at epoch: 97236

The dashed part of the orbit path shows where the satellite is in the earth's shadow,  

DLR